Temp
10 10 10 9 8 9 9 9 10 10 10 9 10 10 10 10 10 10 10 10 9 9 9 9 9 8 8 8 8 8 8 8 9 9 9 9 9 9 9 8 8 9 8 8 9 9 9 9 8
10 10 9 8 9 9 9 9 10 10 10 10 10 10 10 10 10 10 10 10 10 9 9 9 9 8 8 8 8 8 8 9 9 9 9 9 9 9 9 8 8 8 8 8 8 9 9 9 8
9 9 9 8 8 9 10 9 9 10 10 10 10 10 10 10 10 10 10 9 9 9 9 8 8 8 8 8 8 8 8 8 8 9 9 9 9 9 9 8 8 8 8 8 8 8 9 9 8
9 9 8 8 9 9 9 9 9 9 9 9 10 9 10 10 10 10 9 9 9 9 9 9 8 8 8 8 8 8 8 8 8 8 8 8 8 8 9 8 8 8 8 8 8 8 8 8 8
8 8 8 8 9 9 9 9 9 9 9 9 9 9 9 9 9 9 9 9 9 8 8 8 9 8 8 7 8 8 8 8 8 8 8 8 8 8 8 8 8 7 7 8 8 8 8 8 8
7 8 8 8 8 9 9 9 8 8 8 8 9 9 9 9 9 9 9 9 8 8 8 8 8 8 8 7 7 7 7 7 7 7 7 7 8 7 7 7 7 7 7 7 7 7 8 8 8
7 7 8 8 8 8 8 8 8 8 8 8 8 9 9 9 8 8 8 8 8 8 8 8 8 8 8 7 7 7 7 7 7 7 7 7 7 7 7 7 7 7 7 6 7 7 7 7 7
7 7 7 7 7 8 8 8 8 8 8 8 8 8 8 8 8 8 8 8 8 8 8 8 8 8 7 7 7 7 7 7 7 7 7 7 7 7 7 7 7 7 7 6 6 6 7 7 7
6 6 6 6 7 8 7 7 7 7 7 8 8 8 8 7 7 7 7 7 8 8 8 8 8 8 7 7 7 7 6 6 6 6 6 6 6 6 7 7 7 7 7 7 7 6 6 6 7
5 5 6 6 6 7 7 7 7 7 7 7 7 7 7 7 7 7 7 7 7 8 8 8 8 8 8 7 7 7 6 6 6 6 6 6 6 6 6 6 6 6 6 6 6 6 6 6 6
4 4 5 6 6 6 6 6 6 7 6 6 7 7 7 7 7 7 7 7 7 7 8 8 8 8 8 8 8 7 7 6 6 6 6 6 6 6 6 6 6 6 6 6 6 6 6 6 6
4 4 5 5 6 6 6 6 6 6 6 6 6 7 7 7 7 7 7 7 7 7 7 8 8 8 8 8 8 8 8 8 7 7 7 6 6 6 6 6 6 6 6 6 6 6 6 6 6
4 4 5 5 5 5 5 6 6 6 6 6 6 6 7 7 7 7 7 8 8 8 7 7 7 7 7 8 8 8 8 8 7 7 7 7 7 6 6 6 6 5 5 5 6 6 6 6 6
4 4 4 5 5 5 5 5 6 6 6 6 6 6 6 7 7 7 7 7 7 7 7 7 7 7 7 7 7 7 7 7 7 7 7 7 7 7 6 6 5 5 5 5 5 5 5 5 5
3 4 4 4 5 5 5 6 6 6 6 6 6 6 6 7 7 7 6 6 6 7 7 7 7 7 7 7 7 7 7 7 7 7 7 7 6 6 6 6 6 5 5 5 5 5 5 5 5
3 3 4 4 4 5 5 6 6 6 6 6 6 6 6 6 7 7 7 6 6 6 6 7 7 7 7 7 7 7 7 7 7 7 7 7 7 6 6 6 6 5 5 5 5 5 5 4 5
3 3 3 4 4 4 4 6 6 6 6 6 6 6 6 6 6 6 6 6 6 6 7 7 7 7 7 7 7 7 7 7 7 7 7 7 7 6 6 6 6 5 5 5 5 5 4 4 4
3 3 3 3 4 4 5 6 5 5 6 6 6 6 6 6 6 6 6 6 6 6 7 7 7 7 7 7 7 7 7 7 7 7 7 6 6 6 6 6 6 5 5 5 4 4 4 4 4
3 3 3 3 3 4 4 5 6 5 5 6 6 6 6 6 6 5 6 6 6 6 6 6 7 7 7 7 7 7 7 6 6 6 6 6 5 5 5 5 5 5 5 5 4 4 3 4 3
2 2 2 2 3 3 4 5 6 6 6 6 6 6 6 6 5 5 5 5 5 5 5 5 6 6 6 6 6 6 6 6 5 5 4 4 4 4 4 4 4 4 4 4 4 4 3 3 3
2 2 2 2 2 2 3 5 6 6 7 6 6 5 5 5 4 4 3 3 4 4 4 4 5 5 5 5 5 5 5 5 5 5 5 4 3 2 2 2 2 2 3 3 3 3 3 3 3
1 1 1 1 1 1 2 -0 4 6 6 5 5 5 4 4 3 4 3 3 3 3 3 4 4 5 5 4 4 4 5 5 4 4 3 3 3 2 1 1 1 1 2 2 3 3 2 2 2
1 1 1 1 1 0 1 -0 5 6 6 5 5 4 4 3 3 3 3 3 3 3 3 4 4 4 4 4 4 4 4 4 4 3 2 1 1 0 -0 -0 0 0 1 1 2 2 2 1 2
1 1 1 0 -1 -4 -1 -1 5 5 5 4 4 4 4 3 3 3 3 3 3 3 3 3 3 3 4 4 4 4 4 3 2 1 1 -0 -1 -1 -1 -1 -1 -1 -0 1 1 1 1 1 1
0 0 -0 -5 -7 -5 -2 -2 5 4 4 4 4 4 3 3 3 3 3 3 3 3 3 3 4 4 4 4 4 4 3 2 1 1 -0 -1 -1 -2 -2 -2 -2 -1 -1 -0 -0 1 1 1 1
-1 -1 -2 -5 -8 -7 -2 -1 5 4 4 4 3 3 3 3 3 3 3 3 3 3 3 3 3 3 3 3 3 3 2 1 1 -0 -1 -1 -1 -1 -1 -1 -1 -1 -1 -0 -0 0 1 0 1
-2 -2 -2 -2 -6 -6 -2 2 4 4 4 4 3 3 3 3 3 3 3 3 3 2 2 2 2 2 2 2 2 2 2 1 1 -1 -1 -1 -2 -2 -1 -1 -1 -1 -1 -0 -0 0 0 0 0
-2 -2 -2 -3 -6 -6 -3 -1 4 4 4 3 3 3 3 3 3 3 3 3 2 2 2 2 2 2 1 1 2 2 1 1 0 -1 -1 -1 -1 -1 -2 -2 -1 -1 -1 -1 -1 -0 -1 -1 -1
-2 -2 -2 -2 -3 -7 -5 1 5 4 4 4 4 4 3 3 2 2 2 2 2 2 2 2 1 1 2 1 1 2 1 0 -0 -0 -1 -1 -1 -1 -1 -1 -1 -1 -1 -1 -1 -2 -1 -1 -1
-2 -2 -2 -2 -4 -5 -4 0 4 3 4 4 4 3 3 2 2 2 2 2 1 2 1 2 1 2 2 1 1 1 1 1 0 -0 -1 -1 -1 -1 -1 -2 -1 -1 -1 -2 -2 -2 -1 -1 -1
Height
3127 3131 3134 3139 3147 3144 3143 3147 3148 3151 3153 3155 3158 3159 3162 3163 3164 3168 3165 3166 3167 3169 3170 3171 3172 3173 3172 3173 3174 3174 3175 3175 3175 3174 3174 3173 3173 3172 3172 3172 3172 3173 3172 3172 3171 3169 3168 3168 3168
3126 3129 3133 3137 3141 3141 3143 3145 3147 3150 3153 3155 3157 3159 3161 3162 3163 3163 3165 3165 3167 3168 3170 3171 3171 3172 3172 3173 3173 3174 3174 3175 3175 3175 3174 3173 3172 3172 3172 3172 3172 3172 3172 3172 3171 3170 3169 3168 3168
3124 3128 3132 3136 3137 3140 3142 3144 3147 3150 3152 3155 3157 3159 3160 3161 3162 3163 3164 3164 3166 3167 3168 3169 3170 3171 3171 3171 3172 3173 3173 3174 3174 3174 3174 3173 3173 3172 3172 3172 3172 3172 3171 3171 3171 3171 3170 3169 3168
3122 3127 3132 3133 3135 3139 3140 3143 3147 3149 3152 3154 3156 3159 3159 3160 3161 3161 3162 3163 3164 3165 3167 3168 3169 3169 3170 3169 3170 3171 3172 3172 3173 3173 3173 3173 3173 3172 3171 3171 3171 3171 3171 3171 3171 3170 3170 3169 3168
3119 3124 3128 3131 3134 3137 3140 3142 3146 3148 3151 3153 3155 3156 3158 3158 3159 3160 3161 3161 3162 3164 3165 3166 3166 3167 3167 3168 3168 3170 3169 3171 3171 3171 3172 3172 3172 3171 3171 3171 3171 3171 3171 3171 3170 3170 3169 3169 3168
3118 3122 3125 3129 3132 3136 3139 3142 3145 3147 3150 3152 3154 3155 3157 3157 3158 3159 3159 3160 3161 3161 3162 3163 3164 3164 3165 3166 3166 3167 3168 3168 3169 3169 3169 3170 3170 3170 3170 3170 3170 3170 3170 3169 3169 3169 3169 3169 3168
3117 3121 3123 3128 3132 3134 3138 3141 3144 3147 3149 3152 3153 3153 3155 3156 3156 3157 3157 3158 3159 3159 3160 3160 3161 3161 3161 3162 3164 3165 3165 3166 3166 3166 3167 3168 3168 3168 3168 3168 3168 3168 3168 3168 3168 3168 3168 3167 3167
3118 3121 3123 3126 3130 3135 3138 3141 3143 3146 3148 3150 3151 3151 3153 3154 3154 3155 3155 3156 3156 3157 3157 3157 3157 3158 3159 3160 3160 3161 3161 3162 3163 3163 3164 3165 3165 3165 3165 3165 3165 3165 3165 3165 3165 3166 3166 3166 3165
3117 3121 3122 3126 3130 3134 3137 3140 3142 3145 3147 3148 3149 3150 3151 3151 3152 3153 3153 3154 3154 3155 3154 3154 3154 3155 3156 3157 3157 3158 3158 3158 3159 3159 3160 3161 3161 3162 3162 3162 3162 3162 3162 3162 3162 3163 3163 3163 3164
3116 3120 3122 3126 3130 3133 3137 3139 3142 3144 3145 3146 3147 3148 3148 3149 3150 3150 3151 3151 3151 3151 3150 3151 3152 3152 3152 3152 3153 3154 3154 3155 3155 3156 3156 3156 3157 3157 3157 3157 3158 3158 3158 3159 3159 3159 3159 3159 3160
3117 3120 3123 3127 3130 3133 3135 3138 3140 3141 3142 3143 3144 3145 3146 3146 3147 3147 3148 3147 3147 3148 3148 3147 3148 3149 3149 3148 3149 3149 3149 3150 3150 3150 3150 3150 3151 3151 3151 3152 3152 3153 3153 3154 3154 3154 3155 3155 3155
3118 3121 3124 3127 3129 3132 3134 3137 3138 3139 3141 3141 3142 3142 3143 3143 3144 3144 3145 3145 3146 3147 3147 3146 3145 3144 3144 3144 3143 3143 3143 3143 3143 3143 3142 3143 3143 3144 3145 3146 3146 3146 3147 3148 3148 3149 3150 3150 3150
3118 3120 3124 3126 3129 3131 3134 3135 3137 3137 3138 3139 3140 3140 3139 3141 3142 3142 3142 3142 3142 3142 3142 3141 3140 3140 3139 3138 3137 3137 3136 3136 3135 3135 3135 3135 3135 3136 3138 3138 3139 3139 3141 3141 3142 3143 3143 3144 3145
3117 3120 3124 3127 3128 3131 3132 3134 3135 3136 3136 3136 3137 3137 3137 3137 3137 3137 3138 3138 3137 3137 3136 3135 3134 3134 3133 3132 3130 3130 3129 3128 3128 3128 3128 3128 3127 3128 3128 3130 3131 3132 3133 3135 3136 3137 3137 3137 3137
3116 3121 3123 3125 3127 3129 3130 3132 3132 3133 3133 3133 3133 3134 3133 3133 3133 3133 3133 3132 3132 3131 3129 3129 3128 3127 3126 3125 3124 3123 3122 3121 3120 3120 3121 3120 3120 3120 3121 3121 3122 3125 3125 3126 3127 3128 3129 3130 3131
3117 3121 3122 3124 3126 3127 3130 3129 3129 3130 3130 3130 3130 3130 3130 3129 3129 3129 3128 3127 3125 3124 3123 3122 3121 3120 3118 3117 3116 3115 3115 3114 3113 3113 3112 3111 3111 3111 3112 3112 3114 3116 3117 3118 3118 3120 3122 3123 3123
3118 3119 3121 3123 3124 3125 3127 3125 3127 3127 3126 3127 3127 3127 3127 3126 3125 3124 3122 3120 3118 3117 3116 3116 3114 3113 3110 3109 3107 3106 3105 3103 3103 3102 3101 3100 3100 3099 3099 3101 3104 3106 3107 3108 3110 3111 3112 3114 3115
3116 3119 3121 3122 3124 3123 3123 3122 3124 3123 3122 3123 3123 3122 3121 3121 3120 3119 3117 3114 3113 3111 3109 3107 3105 3103 3101 3100 3098 3096 3094 3093 3091 3090 3090 3089 3089 3089 3088 3090 3092 3094 3096 3098 3100 3103 3104 3105 3107
3117 3118 3119 3121 3122 3121 3120 3118 3120 3120 3117 3117 3116 3115 3114 3113 3112 3110 3109 3106 3104 3102 3100 3097 3095 3093 3090 3088 3086 3084 3083 3081 3079 3077 3077 3076 3076 3076 3075 3076 3079 3081 3084 3088 3090 3092 3093 3095 3099
3116 3117 3119 3120 3119 3119 3116 3114 3114 3114 3112 3111 3109 3107 3107 3105 3104 3102 3100 3098 3095 3093 3091 3089 3085 3082 3081 3077 3075 3073 3071 3070 3068 3067 3064 3063 3063 3063 3063 3063 3066 3068 3070 3073 3078 3082 3084 3087 3090
3117 3117 3118 3119 3117 3116 3112 3105 3106 3107 3104 3103 3101 3101 3100 3099 3098 3096 3094 3092 3089 3086 3083 3080 3076 3073 3071 3069 3067 3065 3063 3060 3057 3056 3054 3053 3051 3051 3052 3052 3052 3055 3058 3061 3066 3070 3073 3076 3080
3117 3117 3117 3116 3116 3114 3112 3104 3100 3099 3097 3096 3095 3095 3095 3095 3094 3093 3091 3088 3084 3080 3077 3073 3070 3066 3063 3061 3059 3057 3054 3052 3048 3046 3044 3042 3040 3040 3041 3042 3043 3045 3047 3049 3053 3059 3063 3066 3068
3116 3116 3115 3114 3113 3111 3108 3107 3094 3093 3092 3092 3092 3091 3091 3090 3090 3089 3087 3085 3081 3077 3074 3069 3065 3062 3058 3055 3052 3049 3047 3044 3041 3038 3035 3033 3031 3030 3030 3031 3033 3035 3037 3041 3044 3048 3051 3056 3060
3115 3115 3113 3111 3111 3109 3104 3106 3090 3088 3088 3088 3089 3088 3088 3087 3087 3086 3084 3081 3078 3074 3070 3066 3061 3057 3053 3050 3047 3043 3039 3038 3035 3031 3029 3027 3026 3024 3023 3023 3023 3025 3027 3031 3035 3039 3043 3048 3050
3113 3113 3112 3114 3112 3107 3103 3102 3085 3085 3085 3086 3086 3086 3085 3085 3084 3082 3080 3078 3075 3070 3066 3062 3058 3053 3050 3046 3041 3037 3035 3032 3030 3027 3024 3023 3022 3021 3019 3018 3017 3019 3021 3024 3027 3031 3034 3038 3042
3112 3113 3112 3117 3115 3105 3100 3090 3080 3080 3081 3082 3083 3083 3082 3082 3081 3079 3077 3074 3070 3067 3064 3059 3054 3048 3044 3039 3036 3033 3030 3027 3024 3023 3021 3020 3019 3018 3016 3015 3014 3014 3016 3019 3021 3023 3026 3029 3032
3111 3111 3112 3111 3110 3107 3092 3083 3079 3077 3078 3078 3080 3080 3080 3079 3078 3076 3074 3072 3068 3064 3061 3056 3050 3045 3041 3037 3034 3029 3025 3023 3020 3018 3017 3016 3015 3014 3013 3012 3010 3010 3011 3013 3015 3017 3019 3022 3024
3109 3111 3110 3110 3112 3109 3089 3082 3074 3074 3074 3076 3077 3078 3077 3076 3075 3074 3071 3068 3064 3061 3057 3052 3047 3043 3039 3034 3031 3026 3023 3020 3017 3015 3013 3012 3011 3011 3009 3008 3007 3007 3007 3008 3010 3011 3013 3016 3019
3106 3106 3106 3107 3106 3106 3100 3076 3072 3072 3073 3074 3075 3075 3074 3073 3071 3069 3066 3063 3060 3056 3053 3048 3044 3040 3037 3034 3031 3026 3021 3017 3014 3012 3010 3009 3006 3006 3005 3004 3003 3003 3004 3004 3005 3007 3008 3010 3012
3101 3101 3102 3103 3103 3101 3099 3074 3069 3069 3071 3072 3072 3071 3069 3068 3066 3063 3060 3058 3056 3053 3049 3046 3042 3038 3036 3032 3030 3026 3021 3015 3010 3008 3007 3005 3003 3001 3000 3001 3001 3001 3001 3001 3001 3002 3003 3005 3006
Wind_Speed
17 18 18 18 12 7 8 11 17 19 16 15 11 11 10 9 11 4 3 1 5 8 7 7 7 8 8 8 6 6 6 6 8 8 8 9 9 6 4 3 4 4 6 9 11 12 10 8 5
19 19 20 21 8 11 10 14 17 20 16 15 10 9 10 11 13 10 7 5 3 6 7 8 9 10 9 10 10 8 7 7 8 9 10 10 9 7 6 4 3 4 5 6 9 10 10 8 6
20 20 22 15 9 11 9 16 16 19 17 14 13 10 11 10 12 13 13 10 4 6 8 10 11 11 11 11 12 11 9 9 9 9 9 9 9 9 7 6 5 5 5 4 5 7 8 8 6
22 23 21 14 12 12 11 17 16 16 16 15 13 10 14 13 14 15 16 15 11 10 10 11 14 14 14 13 15 14 12 11 11 10 10 11 10 9 8 7 7 7 7 7 6 4 5 6 5
26 25 19 14 13 15 14 18 17 16 15 14 13 14 12 11 13 14 14 14 13 12 12 12 13 16 16 16 16 17 16 14 14 12 12 11 11 9 8 8 9 9 9 9 9 7 6 4 3
28 26 20 17 18 17 17 19 19 17 14 12 12 12 13 14 12 12 14 14 15 16 16 15 15 14 16 17 17 18 18 17 16 15 14 13 11 12 12 12 11 12 12 11 11 10 9 8 5
25 26 16 19 19 19 19 18 18 15 13 12 12 12 13 13 12 12 13 14 18 19 17 16 16 16 16 17 19 20 20 19 19 19 17 16 14 14 15 15 15 15 14 14 13 13 12 11 9
24 24 14 19 21 20 20 18 16 14 12 11 10 9 12 12 12 12 12 13 13 14 16 18 18 18 17 18 19 20 21 22 21 21 19 18 17 17 17 18 18 18 17 16 16 15 15 15 13
25 15 14 18 22 19 20 18 15 13 12 13 13 13 12 11 12 12 12 12 14 15 16 17 17 18 20 22 21 22 21 22 23 23 22 22 21 21 21 20 20 19 19 19 18 18 18 17 17
23 18 16 17 21 18 19 17 14 13 13 12 11 11 12 12 12 12 13 14 15 17 18 19 19 20 21 23 25 26 26 26 25 26 27 27 26 26 26 25 22 21 19 19 19 19 20 20 19
24 15 12 15 20 19 18 15 13 13 12 13 13 14 15 15 15 15 16 17 19 20 20 22 22 22 23 24 25 27 29 31 31 32 32 33 32 32 32 30 27 26 25 23 22 21 21 21 22
21 12 12 16 20 18 16 16 15 13 13 12 12 13 14 15 16 18 18 20 20 20 22 23 24 25 26 26 27 28 29 31 33 35 38 39 38 35 34 33 31 31 29 28 26 25 24 23 24
19 15 14 17 18 15 15 14 14 14 14 13 14 15 17 18 18 19 20 20 21 21 22 23 25 26 28 30 31 32 32 33 34 34 36 36 36 36 35 35 35 34 32 31 29 28 28 28 28
17 17 14 15 15 15 15 14 15 14 15 16 16 18 18 19 20 21 22 23 24 24 25 26 27 28 30 31 34 35 36 37 38 38 38 38 38 38 37 36 36 35 34 33 32 31 31 32 31
15 16 16 15 14 14 15 16 15 15 16 17 18 18 20 21 22 23 23 25 26 29 30 31 32 33 34 35 37 38 39 41 42 42 42 42 43 42 40 39 39 38 37 37 35 34 35 34 32
11 15 13 15 15 15 14 15 13 15 17 19 20 20 21 23 25 26 27 29 31 32 33 34 36 36 38 39 40 41 42 44 45 45 47 47 46 46 45 45 42 41 41 40 39 36 35 34 32
11 8 12 9 12 15 15 14 13 16 18 19 20 22 23 24 26 28 30 32 34 35 36 37 38 39 41 42 43 44 45 46 47 48 49 51 51 51 50 48 47 45 46 44 43 40 38 36 34
11 9 9 12 13 15 17 19 17 19 22 21 23 25 26 27 28 30 32 34 36 37 37 38 37 37 39 40 41 42 44 44 46 48 49 51 52 53 54 53 51 49 49 48 45 42 40 39 36
7 8 8 10 13 16 18 22 18 18 25 26 26 28 30 31 31 32 34 35 35 35 37 37 38 38 39 40 40 41 42 43 45 46 47 49 50 52 55 54 53 51 50 49 49 45 44 42 39
6 6 8 9 12 17 21 25 23 24 26 27 29 29 28 27 27 28 29 32 34 35 37 36 37 35 34 35 36 37 38 38 39 41 46 48 50 50 50 52 53 53 52 50 50 49 48 44 41
6 6 7 10 13 18 24 31 25 20 20 20 19 20 23 23 23 24 26 30 31 33 33 32 33 33 32 32 32 33 33 33 33 34 39 44 47 49 49 48 49 50 51 51 48 51 50 46 44
5 6 8 11 13 8 15 10 25 24 21 19 16 15 16 16 18 21 21 22 23 24 24 25 25 25 25 25 25 27 29 33 34 33 33 35 41 45 47 46 46 47 48 50 50 48 49 45 41
5 8 10 13 14 16 16 9 7 20 14 15 13 11 14 14 12 9 13 15 17 17 18 20 22 22 22 24 28 29 31 34 34 34 33 29 30 33 38 42 42 43 44 45 46 46 47 47 45
7 8 11 13 11 4 6 5 12 9 8 9 8 10 5 3 5 8 11 14 17 18 19 21 22 24 25 25 26 27 28 30 31 27 24 22 22 23 25 30 33 37 39 39 39 40 43 46 43
7 5 3 3 1 5 4 9 18 12 11 8 7 4 2 6 8 10 12 14 17 20 22 22 21 23 25 25 25 25 27 26 27 24 19 19 19 19 20 22 23 27 32 34 35 35 36 38 43
4 4 2 5 2 5 10 11 5 6 14 11 10 7 7 10 11 12 13 15 17 19 22 23 22 24 27 24 23 23 22 21 22 20 18 18 18 18 20 21 24 24 25 27 29 31 34 36 38
4 4 4 3 4 5 7 12 18 18 16 14 11 13 12 13 14 15 17 18 18 19 21 22 20 22 27 21 21 23 20 18 19 18 20 20 20 20 21 20 21 22 23 24 26 27 30 32 32
9 5 3 4 1 5 8 13 15 7 7 7 6 7 10 13 15 16 17 17 19 20 21 21 18 17 24 24 20 20 17 17 17 17 20 22 22 21 20 19 19 20 21 22 22 22 23 25 26
12 11 8 5 4 3 4 8 5 6 8 6 8 8 12 17 19 19 18 17 17 19 20 20 18 17 20 20 19 22 18 15 17 17 18 18 20 21 21 20 18 18 19 20 19 18 23 24 26
13 14 13 7 6 7 4 18 9 9 7 6 11 14 19 25 23 18 19 18 17 18 18 18 17 15 16 15 15 18 18 16 14 13 15 17 17 19 16 17 17 17 16 17 19 21 23 23 24
Wind_Direction
191 189 184 181 181 204 185 168 168 172 178 181 171 170 184 198 188 213 172 308 218 222 228 224 235 242 244 246 259 270 288 306 318 326 329 333 335 328 302 289 317 327 1 10 13 18 12 3 1
187 186 182 180 194 193 178 172 171 179 183 188 193 198 195 210 204 233 254 270 214 233 243 238 245 251 253 251 253 254 273 295 307 316 324 331 332 327 304 274 285 303 343 356 4 12 18 19 15
186 185 182 183 203 195 180 175 173 181 193 198 207 214 226 232 241 252 264 265 229 227 244 239 243 248 249 254 255 253 259 282 296 303 311 321 326 325 310 282 277 279 293 314 344 1 9 17 21
184 183 187 196 190 185 179 178 182 182 191 200 207 226 242 246 251 257 262 263 257 246 238 241 239 245 246 249 251 251 255 265 278 286 296 304 308 314 311 287 272 275 282 293 306 329 351 7 19
182 187 187 196 187 187 185 183 185 189 197 202 214 227 249 257 253 254 253 254 256 254 248 247 253 245 244 248 250 252 251 256 263 267 280 287 294 301 307 300 275 271 277 283 290 299 307 322 346
181 186 194 191 189 188 186 190 193 196 201 215 230 247 253 257 255 255 255 258 262 263 261 254 251 255 249 248 249 253 257 260 262 264 269 274 277 290 296 295 284 278 274 275 278 281 287 296 299
189 187 196 200 192 184 190 191 197 204 210 219 233 246 254 252 255 258 261 261 264 265 266 269 262 253 246 246 250 253 258 262 264 266 267 270 272 279 287 290 282 274 270 268 270 274 279 278 281
189 193 189 191 188 189 191 194 202 204 215 224 231 243 249 257 259 261 261 259 265 270 268 266 263 257 250 249 248 253 253 256 259 263 264 265 272 274 284 287 278 272 271 268 265 265 270 275 275
192 192 191 186 183 190 193 199 205 215 224 235 244 249 250 251 251 253 258 261 259 261 263 266 269 264 257 253 253 254 257 257 255 254 257 262 266 270 278 281 276 272 270 269 267 265 262 265 270
191 194 189 190 188 194 200 210 213 226 239 242 240 238 243 251 255 255 256 257 257 260 264 264 266 267 266 260 256 257 259 260 259 259 260 262 264 266 270 273 270 266 267 269 270 267 262 261 264
192 199 193 189 195 200 203 213 218 230 245 249 243 242 247 254 256 256 254 253 257 263 266 270 272 272 270 269 267 263 261 260 261 261 261 262 263 264 266 266 264 261 261 264 268 269 266 261 257
191 186 193 190 199 206 202 213 225 235 243 248 251 253 256 259 261 261 262 264 265 267 272 276 278 277 277 274 271 268 266 264 262 261 262 262 263 264 263 262 261 255 256 259 263 265 264 262 261
195 191 189 187 197 204 208 214 226 239 249 252 257 260 263 267 268 271 272 272 274 274 272 269 269 271 273 275 274 273 270 267 266 265 264 263 262 260 261 260 259 257 255 257 258 259 259 263 263
191 193 195 199 206 215 225 233 237 242 251 257 257 262 267 272 274 275 278 280 280 279 277 276 275 272 270 270 270 271 272 272 270 268 266 266 264 261 257 255 255 254 256 257 258 260 261 262 259
192 195 202 208 217 229 237 242 244 248 252 259 263 265 269 270 272 276 279 281 282 282 282 281 280 279 277 275 274 273 273 273 273 273 272 269 268 266 261 253 251 252 253 255 256 258 260 260 263
191 202 210 221 228 238 243 246 249 254 257 261 265 268 270 275 279 281 282 282 281 280 279 280 280 279 278 277 276 274 273 272 272 272 272 272 271 269 265 262 255 250 253 254 254 256 257 259 261
186 195 207 221 229 242 246 256 262 264 263 263 267 269 272 275 277 279 280 281 281 281 281 281 280 279 278 277 276 275 274 272 270 268 267 267 267 266 265 263 260 253 250 253 254 251 253 256 256
194 198 208 230 245 250 255 260 260 268 269 267 269 274 275 276 277 278 279 280 281 282 282 282 282 281 279 279 278 276 274 272 270 268 266 264 263 264 264 263 261 257 252 249 252 255 254 255 254
200 213 234 246 260 270 270 269 266 262 271 280 282 281 283 282 280 279 280 281 282 285 287 288 288 288 287 284 283 281 278 275 273 271 268 265 263 261 260 259 259 259 257 252 249 249 250 252 252
224 230 246 266 278 285 286 282 281 278 280 278 276 276 275 275 275 276 280 285 290 293 294 295 291 290 289 288 288 287 286 283 278 274 271 267 263 260 258 259 259 255 254 252 247 248 250 252 255
232 251 269 281 292 294 299 297 293 293 287 280 272 273 272 270 276 285 295 298 298 297 297 296 294 294 292 290 292 293 295 295 290 282 275 270 267 261 261 260 256 253 252 254 251 244 246 250 250
250 264 281 292 300 293 303 285 289 293 284 277 271 268 276 283 288 292 298 311 312 308 306 305 304 301 297 297 297 299 303 299 297 294 286 277 268 263 261 262 262 261 255 250 251 249 246 247 249
257 274 285 289 289 295 285 268 294 290 273 272 270 282 292 293 297 311 320 331 333 322 319 316 314 311 309 308 307 306 310 308 305 301 295 288 278 273 265 260 262 259 257 257 254 251 245 247 250
253 267 283 283 283 277 256 245 279 274 271 258 284 290 283 313 326 322 329 331 334 337 338 330 327 324 316 316 311 316 317 312 311 305 301 301 297 284 275 268 261 255 255 256 256 257 254 247 248
238 261 298 325 340 226 251 269 261 270 242 265 274 213 336 339 338 334 331 332 334 340 335 327 328 326 321 309 312 317 317 316 316 302 304 308 303 289 279 272 264 261 259 256 258 259 258 257 247
232 232 224 227 256 286 271 242 271 290 236 247 232 224 330 332 323 323 327 330 333 331 331 328 329 334 329 319 316 317 314 316 313 301 297 295 290 287 282 272 269 266 261 262 260 259 259 256 251
232 229 229 280 301 290 257 275 281 256 243 258 246 253 299 312 316 320 324 322 324 329 331 333 337 343 340 332 323 325 317 311 311 301 295 291 290 286 286 285 277 270 266 263 262 262 261 259 255
226 229 214 237 285 286 282 280 256 256 223 228 246 283 303 315 314 310 305 309 320 329 331 336 334 340 352 349 343 340 324 314 315 310 300 293 285 285 283 278 280 275 269 264 263 264 265 263 260
222 224 219 224 225 195 299 268 252 254 235 254 302 310 320 316 309 300 298 302 316 323 328 334 336 344 346 346 354 359 352 327 312 307 309 303 292 281 277 274 276 279 278 269 261 258 257 253 251
237 236 228 218 213 223 252 278 270 238 224 271 307 307 314 318 318 306 302 303 310 315 320 330 332 343 346 352 351 354 357 358 344 319 304 299 297 282 278 271 269 273 276 265 257 254 260 266 263